Nenana, AK

9:21 AM AKST on February 07, 2016 (GMT -0900)
Nenana Municipal

Weather History for PANN - November, 2012

Change the Weather History Date:

Thursday, November 8, 2012

  Actual Average Record
Temperature  
Mean Temperature 18 °F -  
Max Temperature 43 °F 14 °F 54 °F (2002)
Min Temperature -8 °F -1 °F -18 °F (2006)
Degree Days  
Heating Degree Days 48    
Moisture  
Dew Point -7 °F    
Average Humidity 65    
Maximum Humidity 80    
Minimum Humidity 56    
Precipitation  
Precipitation 0.00 in - - ()
Sea Level Pressure  
Sea Level Pressure 30.34 in    
Wind  
Wind Speed 6 mph (East)    
Max Wind Speed 20 mph    
Max Gust Speed 30 mph    
Visibility 10 miles    
Events      
Averages and records for this station are not official NWS values.
T = Trace of Precipitation, MM = Missing Value Source: NWS Daily Summary

Daily Weather History Graph

Daily Weather History Graph

Search for Another Location

Airport or City:

Trip Planner

Search our weather history database for the weather conditions in past years. The results will help you decide how hot, cold, wet, or windy it might be!

Date:

Astronomy

Nov. 08, 2012 Rise Set
Actual Time 9:07 AM AKST 4:11 PM AKST
Civil Twilight 8:09 AM AKST 5:09 PM AKST
Nautical Twilight 7:09 AM AKST 6:09 PM AKST
Astronomical Twilight 6:13 AM AKST 7:05 PM AKST
Moon 1:10 AM AKST (11/8) 2:46 PM AKST (11/8)
Length of Visible Light 8h 59m
Length of Day
7h 03m
Waning Crescent, 31% of the Moon is Illuminated
Nov 8
Waning Crescent
Nov 13
New
Nov 20
First Quarter
Nov 28
Full
Dec 6
Last Quarter

Hourly Weather History & Observations

Time (AKST) Temp. Windchill Dew Point Humidity Pressure Visibility Wind Dir Wind Speed Gust Speed Precip Events Conditions
12:53 AM -22.0 °F - -29.0 °F 70% 30.55 in 10.0 mi Calm Calm - N/A   Clear
1:53 AM -22.0 °F - -27.9 °F 74% 30.54 in 10.0 mi Calm Calm - N/A   Clear
3:53 AM -23.1 °F - -29.0 °F 74% 30.51 in 10.0 mi Calm Calm - N/A   Clear
4:53 AM -23.1 °F - -29.0 °F 74% 30.50 in 10.0 mi Calm Calm - N/A   Clear
5:53 AM -23.1 °F - -29.9 °F 70% 30.47 in 8.0 mi Calm Calm - N/A   Clear
6:53 AM -8.0 °F -27.1 °F -17.0 °F 65% 30.46 in 10.0 mi East 11.5 mph - N/A   Clear
7:53 AM -13.0 °F -28.6 °F -22.0 °F 64% 30.44 in 10.0 mi East 6.9 mph - N/A   Clear
8:53 AM -8.0 °F -21.0 °F -14.1 °F 75% 30.42 in 10.0 mi ESE 5.8 mph - N/A   Clear
9:53 AM -7.1 °F -19.9 °F -13.0 °F 75% 30.40 in 10.0 mi East 5.8 mph - N/A   Clear
10:53 AM -0.0 °F -16.3 °F -7.1 °F 72% 30.38 in 10.0 mi East 10.4 mph - N/A   Clear
11:53 AM 3.0 °F -14.8 °F -6.0 °F 66% 30.37 in 10.0 mi East 13.8 mph 23.0 mph N/A   Clear
12:53 PM 6.1 °F -12.2 °F -4.0 °F 63% 30.35 in 10.0 mi East 16.1 mph 21.9 mph N/A   Clear
1:53 PM 9.0 °F -7.9 °F -2.9 °F 59% 30.32 in 10.0 mi East 15.0 mph 27.6 mph N/A   Clear
2:53 PM 10.9 °F -7.5 °F -2.0 °F 56% 30.30 in 10.0 mi East 19.6 mph 29.9 mph N/A   Clear
3:53 PM 10.9 °F -5.9 °F -0.9 °F 59% 30.28 in 10.0 mi ENE 16.1 mph 23.0 mph N/A   Clear
4:53 PM 10.9 °F -4.7 °F -0.9 °F 59% 30.26 in 10.0 mi ENE 13.8 mph 24.2 mph N/A   Clear
5:53 PM 10.9 °F -5.9 °F -0.9 °F 59% 30.25 in 10.0 mi ENE 16.1 mph 25.3 mph N/A   Clear
6:53 PM 10.9 °F -5.4 °F -0.9 °F 59% 30.24 in 10.0 mi ENE 15.0 mph 20.7 mph N/A   Clear
7:53 PM 10.9 °F -3.4 °F -0.9 °F 59% 30.24 in 10.0 mi ENE 11.5 mph 20.7 mph N/A   Clear
8:53 PM 10.9 °F -2.6 °F -0.9 °F 59% 30.22 in 10.0 mi ENE 10.4 mph - N/A   Clear
9:53 PM 10.9 °F -3.4 °F -0.9 °F 59% 30.21 in 10.0 mi East 11.5 mph - N/A   Partly Cloudy
10:53 PM 10.9 °F 0.2 °F -0.9 °F 59% 30.20 in 10.0 mi ENE 6.9 mph 17.3 mph N/A   Partly Cloudy
11:53 PM 10.9 °F 1.4 °F -0.0 °F 61% 30.19 in 10.0 mi ENE 5.8 mph - N/A   Partly Cloudy